Flag for Chile Weather past 2 weeks in Santiago, Chile

Now
48 °F

Clear.


Feels Like: 46 °F
Forecast: 55 / 80 °F
Wind: 5 mph from Northwest

Location: Pudahuel

Current Time: Aug 31, 2015 at 5:59:25 AM

Latest Report: Aug 31, 2015 at 5:00 AM


Visibility: 5 mi

Pressure: 30.04 "Hg (28.02 "Hg at 576m altitude)

Humidity: 87%

Dew point: 45 °F

Location of SantiagoLocation

Historic Weather in Santiago — Graph

°F

Santiago temperature yesterday

Maximum temperature yesterday: 75 °F (at 3:00 PM)
Minimum temperature yesterday: 43 °F (at 8:00 AM)
Average temperature yesterday: 59 °F

Past Weeks' High & Low Weather Summary

 TemperatureHumidityPressure
High75 °F (Aug 28, 5:00 PM)100% (Aug 16, 8:00 AM)32.43 "Hg (Aug 16, 8:00 AM)
Low36 °F (Aug 18, 9:00 AM)25% (Aug 28, 5:00 PM)29.86 "Hg (Aug 24, 4:00 PM)
Average54 °F71%30.04 "Hg
* Reported Aug 16 4:00 AM — Aug 31 4:00 AM, Santiago, Weather by CustomWeather, © 2015

Note: Actual official high and low records may vary slightly from our data, if they occured in-between our weather recording intervals... More about our weather records

Advertising

Santiago weather history for previous 24 hours

 ConditionsComfort  
Time TempWeatherWind HumidityBarometerVisibility
4:00 AM
Mon, Aug 31
54 °FClear.1 mph77%30.07 "Hg10 mi
3:00 AM52 °FClear.2 mph77%30.07 "Hg10 mi
2:00 AM55 °FPassing clouds.5 mph77%30.07 "HgN/A
1:00 AM57 °FPassing clouds.3 mph67%30.07 "HgN/A
12:00 AM59 °FClear.No wind68%30.09 "Hg10 mi
11:00 PM
Sun, Aug 30
63 °FClear.5 mph64%30.07 "Hg10 mi
10:00 PM64 °FClear.7 mph60%30.07 "Hg10 mi
9:00 PM64 °FClear.9 mph56%30.01 "Hg10 mi
8:00 PM66 °FClear.6 mph52%29.98 "Hg10 mi
7:00 PM70 °FClear.9 mph50%29.98 "Hg10 mi
6:00 PM75 °FSunny.10 mph41%29.98 "Hg10 mi
5:00 PM75 °FSunny.9 mph41%29.98 "Hg10 mi
4:00 PM75 °FPassing clouds.7 mph36%29.98 "HgN/A
3:00 PM75 °FSunny.6 mph39%29.98 "Hg10 mi
2:00 PM72 °FPassing clouds.10 mph47%29.98 "HgN/A
1:00 PM68 °FPassing clouds.5 mph53%29.98 "HgN/A
12:00 PM63 °FSunny.1 mph59%29.98 "Hg10 mi
11:00 AM57 °FPassing clouds.3 mph67%29.98 "HgN/A
10:00 AM50 °FSunny.6 mph82%30.01 "Hg10 mi
9:00 AM45 °FClear.3 mph87%30.01 "Hg3 mi
8:00 AM43 °FClear.1 mph87%29.98 "Hg2 mi
7:00 AM48 °FClear.3 mph82%29.95 "Hg4 mi
6:00 AM45 °FClear.3 mph81%29.95 "Hg3 mi
5:00 AM45 °FClear.No wind87%29.95 "Hg4 mi
Weather by CustomWeather, © 2015

See weather overviewHow to use our weather pages